Nadi, Fiji

5:09 PM FJT on February 10, 2016 (GMT +1200)
Nadi International

Weather History for NFFN - October, 2012

Change the Weather History Date:

Monday, October 29, 2012

  Actual Average Record
Temperature  
Mean Temperature 78 °F -  
Max Temperature 86 °F 84 °F 89 °F (1998)
Min Temperature 69 °F 70 °F 68 °F (2000)
Cooling Degree Days 12    
Growing Degree Days 28 (Base 50)    
Moisture  
Dew Point 70 °F    
Average Humidity 77    
Maximum Humidity 94    
Minimum Humidity 54    
Precipitation  
Precipitation 0.00 in 0.18 in - ()
Sea Level Pressure  
Sea Level Pressure 29.85 in    
Wind  
Wind Speed 3 mph ()    
Max Wind Speed 12 mph    
Max Gust Speed -    
Visibility 14.4 miles    
Events      
Averages and records for this station are not official NWS values.
T = Trace of Precipitation, MM = Missing Value Source: Averaged Metar Reports

Daily Weather History Graph

Daily Weather History Graph

Search for Another Location

Airport or City:

Trip Planner

Search our weather history database for the weather conditions in past years. The results will help you decide how hot, cold, wet, or windy it might be!

Date:

Astronomy

Oct. 29, 2012 Rise Set
Actual Time 6:32 AM FJST 7:15 PM FJST
Civil Twilight 6:10 AM FJST 7:37 PM FJST
Nautical Twilight 5:43 AM FJST 8:04 PM FJST
Astronomical Twilight 5:17 AM FJST 8:31 PM FJST
Moon 6:43 PM FJST (10/29) 5:46 AM FJST (10/29)
Length of Visible Light 13h 27m
Length of Day
12h 42m
Waxing Gibbous, 99% of the Moon is Illuminated
Oct 29
Waxing Gibbous
Oct 30
Full
Nov 7
Last Quarter
Nov 14
New
Nov 21
First Quarter

Hourly Weather History & Observations

Time (FJST) Temp. Heat Index Dew Point Humidity Pressure Visibility Wind Dir Wind Speed Gust Speed Precip Events Conditions
12:00 AM 75.2 °F - 69.8 °F 83% 29.89 in 28.0 mi Calm Calm - N/A   Partly Cloudy
1:00 AM 74 °F - 70 °F 84% 29.90 in 12 mi Calm Calm - -   Partly Cloudy
1:00 AM 73.4 °F - 69.8 °F 88% 29.89 in 28.0 mi Calm Calm - N/A   Scattered Clouds
2:00 AM 71.6 °F - 69.8 °F 94% 29.86 in 28.0 mi Calm Calm - N/A   Scattered Clouds
3:00 AM 71.6 °F - 69.8 °F 94% 29.83 in 28.0 mi Calm Calm - N/A   Scattered Clouds
4:00 AM 71 °F - 68 °F 87% 29.85 in 12 mi Calm Calm - -   Partly Cloudy
4:00 AM 69.8 °F - 68.0 °F 94% 29.83 in 28.0 mi Calm Calm - N/A   Scattered Clouds
5:00 AM 69.8 °F - 68.0 °F 94% 29.83 in 28.0 mi Calm Calm - N/A   Scattered Clouds
6:00 AM 69.8 °F - 68.0 °F 94% 29.83 in 31.1 mi Calm Calm - N/A   Partly Cloudy
7:00 AM 70 °F - 67 °F 87% 29.86 in 31 mi ESE 5.8 mph - -   Partly Cloudy
7:00 AM 69.8 °F - 66.2 °F 88% 29.86 in 31.1 mi ESE 5.8 mph - N/A   Mostly Cloudy
8:00 AM 73.4 °F - 68.0 °F 83% 29.89 in 31.1 mi South 5.8 mph - N/A   Scattered Clouds
9:00 AM 78.8 °F - 69.8 °F 74% 29.89 in 28.0 mi Calm Calm - N/A   Scattered Clouds
10:00 AM 81 °F - 69 °F 60% 29.91 in 12 mi Calm Calm - -   Partly Cloudy
10:00 AM 80.6 °F 83.9 °F 69.8 °F 70% 29.89 in 28.0 mi Calm Calm - N/A   Scattered Clouds
11:00 AM 82.4 °F 85.4 °F 68.0 °F 62% 29.89 in 28.0 mi West 5.8 mph - N/A   Scattered Clouds
12:00 PM 84.2 °F 89.6 °F 71.6 °F 66% 29.86 in 28.0 mi WNW 6.9 mph - N/A   Mostly Cloudy
1:00 PM 84 °F - 70 °F 54% 29.87 in 12 mi West 10.4 mph - -   Partly Cloudy
1:00 PM 84.2 °F 88.4 °F 69.8 °F 62% 29.86 in 28.0 mi West 10.4 mph - N/A   Mostly Cloudy
2:00 PM 84.2 °F 89.6 °F 71.6 °F 66% 29.83 in 18.6 mi West 9.2 mph - N/A   Mostly Cloudy
3:00 PM 84.2 °F 89.6 °F 71.6 °F 66% 29.80 in 18.6 mi West 11.5 mph - N/A   Mostly Cloudy
4:00 PM 86 °F - 73 °F 58% 29.80 in 12 mi West 10.4 mph - -   Haze
4:00 PM 86.0 °F 93.4 °F 73.4 °F 66% 29.80 in 18.6 mi West 10.4 mph - N/A   Mostly Cloudy
5:00 PM 86.0 °F 91.8 °F 71.6 °F 62% 29.77 in 18.6 mi West 8.1 mph - N/A   Mostly Cloudy
6:00 PM 86.0 °F 91.8 °F 71.6 °F 62% 29.77 in 21.8 mi SSW 5.8 mph - N/A   Scattered Clouds
7:00 PM 82 °F - 73 °F 68% 29.81 in 12 mi SSW 6.9 mph - -   Partly Cloudy
7:00 PM 82.4 °F 88.2 °F 73.4 °F 74% 29.80 in 21.8 mi SSW 6.9 mph - N/A   Scattered Clouds
8:00 PM 78.8 °F - 71.6 °F 78% 29.83 in 24.9 mi SSW 8.1 mph - N/A   Partly Cloudy
9:00 PM 77.0 °F - 71.6 °F 83% 29.83 in 24.9 mi SSW 6.9 mph - N/A   Partly Cloudy
10:00 PM 76 °F - 71 °F 79% 29.86 in 12 mi South 6.9 mph - -   Partly Cloudy
10:00 PM 77.0 °F - 71.6 °F 83% 29.86 in 24.9 mi South 6.9 mph - N/A   Partly Cloudy
11:00 PM 75.2 °F - 71.6 °F 89% 29.86 in 24.9 mi SE 3.5 mph - N/A   Scattered Clouds